Time,TemperatureF,DewpointF,PressureIn,WindDirection,WindDirectionDegrees,WindSpeedMPH,WindSpeedGustMPH,Humidity,HourlyPrecipIn,Conditions,Clouds,dailyrainin,SoftwareType,DateUTC
2013-01-09 00:03:00,30.0,25.0,30.02,SSE,151,0.0,0.0,83,0.00,,,0.00,,2013-01-09 05:03:00,
2013-01-09 00:12:00,30.0,25.0,30.02,SSE,151,0.0,0.0,83,0.00,,,0.00,,2013-01-09 05:12:00,
2013-01-09 00:22:00,30.0,26.0,30.02,SSE,150,0.0,0.0,84,0.00,,,0.00,,2013-01-09 05:22:00,
2013-01-09 00:33:00,29.0,25.0,30.02,SSE,151,0.0,0.0,84,0.00,,,0.00,,2013-01-09 05:33:00,
2013-01-09 00:42:00,29.0,25.0,30.02,SSE,151,0.0,0.0,84,0.00,,,0.00,,2013-01-09 05:42:00,
2013-01-09 00:53:00,29.0,25.0,30.02,SSE,151,0.0,1.0,86,0.00,,,0.00,,2013-01-09 05:53:00,
2013-01-09 01:02:00,29.0,25.0,30.01,SSE,150,0.0,0.0,86,0.00,,,0.00,,2013-01-09 06:02:00,
2013-01-09 01:12:00,29.0,25.0,30.01,SSE,150,0.0,0.0,86,0.00,,,0.00,,2013-01-09 06:12:00,
2013-01-09 01:22:00,28.0,24.0,29.99,SSE,150,0.0,0.0,86,0.00,,,0.00,,2013-01-09 06:22:00,
2013-01-09 01:32:00,29.0,26.0,29.98,SSW,212,0.0,1.0,88,0.00,,,0.00,,2013-01-09 06:32:00,
2013-01-09 01:42:00,29.0,26.0,29.98,SSW,212,0.0,1.0,88,0.00,,,0.00,,2013-01-09 06:42:00,
2013-01-09 01:52:00,29.0,26.0,29.97,SSW,209,0.0,0.0,87,0.00,,,0.00,,2013-01-09 06:52:00,
2013-01-09 02:02:00,29.0,26.0,29.96,SSW,209,1.0,1.0,87,0.00,,,0.00,,2013-01-09 07:02:00,
2013-01-09 02:12:00,29.0,26.0,29.96,SSW,209,1.0,1.0,87,0.00,,,0.00,,2013-01-09 07:12:00,
2013-01-09 02:22:00,30.0,27.0,29.96,South,178,1.0,3.0,87,0.00,,,0.00,,2013-01-09 07:22:00,
2013-01-09 02:32:00,32.0,28.0,29.95,SSW,210,0.0,5.0,85,0.00,,,0.00,,2013-01-09 07:32:00,
2013-01-09 02:42:00,32.0,28.0,29.95,SSW,210,0.0,5.0,85,0.00,,,0.00,,2013-01-09 07:42:00,
2013-01-09 02:52:00,33.0,28.0,29.94,South,181,1.0,5.0,83,0.00,,,0.00,,2013-01-09 07:52:00,
2013-01-09 03:02:00,33.0,28.0,29.94,SSW,205,0.0,5.0,83,0.00,,,0.00,,2013-01-09 08:02:00,
2013-01-09 03:12:00,33.0,28.0,29.94,SSW,205,0.0,5.0,83,0.00,,,0.00,,2013-01-09 08:12:00,
2013-01-09 03:22:00,33.0,28.0,29.94,South,173,0.0,6.0,83,0.00,,,0.00,,2013-01-09 08:22:00,
2013-01-09 03:32:00,34.0,29.0,29.94,SSE,162,4.0,10.0,82,0.00,,,0.00,,2013-01-09 08:32:00,
2013-01-09 03:42:00,34.0,29.0,29.94,SSE,162,4.0,10.0,82,0.00,,,0.00,,2013-01-09 08:42:00,
2013-01-09 03:53:00,34.0,29.0,29.93,SSW,213,0.0,5.0,81,0.00,,,0.00,,2013-01-09 08:53:00,
2013-01-09 04:02:00,34.0,29.0,29.93,SSW,202,2.0,5.0,81,0.00,,,0.00,,2013-01-09 09:02:00,
2013-01-09 04:12:00,34.0,29.0,29.93,SSW,202,2.0,5.0,81,0.00,,,0.00,,2013-01-09 09:12:00,
2013-01-09 04:22:00,35.0,29.0,29.92,South,190,2.0,5.0,80,0.00,,,0.00,,2013-01-09 09:22:00,
2013-01-09 04:32:00,36.0,30.0,29.91,WSW,237,0.0,6.0,80,0.00,,,0.00,,2013-01-09 09:32:00,
2013-01-09 04:42:00,36.0,30.0,29.91,WSW,237,0.0,6.0,80,0.00,,,0.00,,2013-01-09 09:42:00,
2013-01-09 04:53:00,36.0,30.0,29.91,SW,223,0.0,2.0,80,0.00,,,0.00,,2013-01-09 09:53:00,
2013-01-09 05:02:00,38.0,32.0,29.91,WSW,249,0.0,9.0,79,0.00,,,0.00,,2013-01-09 10:02:00,
2013-01-09 05:12:00,38.0,32.0,29.91,WSW,249,0.0,9.0,79,0.00,,,0.00,,2013-01-09 10:12:00,
2013-01-09 05:22:00,38.0,32.0,29.89,SW,217,3.0,9.0,78,0.00,,,0.00,,2013-01-09 10:22:00,
2013-01-09 05:32:00,38.0,31.0,29.87,WSW,258,3.0,6.0,77,0.00,,,0.00,,2013-01-09 10:32:00,
2013-01-09 05:42:00,38.0,31.0,29.87,WSW,258,3.0,6.0,77,0.00,,,0.00,,2013-01-09 10:42:00,
2013-01-09 05:52:00,38.0,33.0,29.87,SW,221,1.0,10.0,82,0.01,,,0.01,,2013-01-09 10:52:00,
2013-01-09 06:02:00,38.0,34.0,29.88,SSW,209,1.0,9.0,84,0.01,,,0.01,,2013-01-09 11:02:00,
2013-01-09 06:12:00,38.0,34.0,29.88,SSW,209,1.0,9.0,84,0.01,,,0.01,,2013-01-09 11:12:00,
2013-01-09 06:22:00,37.0,33.0,29.88,South,188,2.0,7.0,84,0.01,,,0.01,,2013-01-09 11:22:00,
2013-01-09 06:33:00,37.0,33.0,29.88,West,264,0.0,7.0,84,0.01,,,0.01,,2013-01-09 11:33:00,
2013-01-09 06:42:00,37.0,33.0,29.88,West,264,0.0,7.0,84,0.01,,,0.01,,2013-01-09 11:42:00,
2013-01-09 06:53:00,37.0,33.0,29.86,South,177,2.0,6.0,84,0.00,,,0.01,,2013-01-09 11:53:00,
2013-01-09 07:03:00,37.0,33.0,29.87,SW,219,3.0,7.0,85,0.00,,,0.01,,2013-01-09 12:03:00,
2013-01-09 07:12:00,37.0,33.0,29.87,SW,219,3.0,7.0,85,0.00,,,0.01,,2013-01-09 12:12:00,
2013-01-09 07:23:00,37.0,33.0,29.86,South,181,1.0,7.0,85,0.00,,,0.01,,2013-01-09 12:23:00,
2013-01-09 07:33:00,37.0,33.0,29.86,WSW,248,0.0,6.0,85,0.00,,,0.01,,2013-01-09 12:33:00,
2013-01-09 07:43:00,37.0,33.0,29.86,WSW,248,0.0,6.0,85,0.00,,,0.01,,2013-01-09 12:43:00,
2013-01-09 07:53:00,37.0,33.0,29.86,SW,219,1.0,10.0,86,0.00,,,0.01,,2013-01-09 12:53:00,
2013-01-09 08:03:00,37.0,33.0,29.86,West,272,5.0,8.0,86,0.00,,,0.01,,2013-01-09 13:03:00,
2013-01-09 08:12:00,37.0,33.0,29.86,West,272,5.0,8.0,86,0.00,,,0.01,,2013-01-09 13:12:00,
2013-01-09 08:23:00,37.0,33.0,29.87,WSW,248,0.0,6.0,85,0.00,,,0.01,,2013-01-09 13:23:00,
2013-01-09 08:33:00,37.0,33.0,29.88,West,281,3.0,6.0,85,0.00,,,0.01,,2013-01-09 13:33:00,
2013-01-09 08:43:00,37.0,33.0,29.88,West,281,3.0,6.0,85,0.00,,,0.01,,2013-01-09 13:43:00,
2013-01-09 08:53:00,38.0,34.0,29.89,SSW,213,7.0,10.0,84,0.00,,,0.01,,2013-01-09 13:53:00,
2013-01-09 09:03:00,38.0,34.0,29.91,SSW,192,3.0,16.0,84,0.00,,,0.01,,2013-01-09 14:03:00,
2013-01-09 09:12:00,38.0,34.0,29.91,SSW,201,1.0,8.0,84,0.00,,,0.01,,2013-01-09 14:12:00,
2013-01-09 09:23:00,38.0,34.0,29.91,SSW,201,1.0,8.0,84,0.00,,,0.01,,2013-01-09 14:23:00,
2013-01-09 09:33:00,39.0,34.0,29.91,WSW,250,7.0,10.0,82,0.00,,,0.01,,2013-01-09 14:33:00,
2013-01-09 09:43:00,39.0,34.0,29.91,WSW,250,7.0,10.0,82,0.00,,,0.01,,2013-01-09 14:43:00,
2013-01-09 09:53:00,40.0,34.0,29.91,West,273,3.0,14.0,80,0.00,,,0.01,,2013-01-09 14:53:00,
2013-01-09 10:03:00,41.0,35.0,29.92,West,261,6.0,14.0,78,0.00,,,0.01,,2013-01-09 15:03:00,
2013-01-09 10:13:00,41.0,35.0,29.92,West,261,6.0,14.0,78,0.00,,,0.01,,2013-01-09 15:13:00,
2013-01-09 10:23:00,41.0,34.0,29.93,SW,223,9.0,12.0,76,0.00,,,0.01,,2013-01-09 15:23:00,
2013-01-09 10:33:00,41.0,33.0,29.93,WSW,243,0.0,16.0,74,0.00,,,0.01,,2013-01-09 15:33:00,
2013-01-09 10:43:00,41.0,33.0,29.93,WSW,243,0.0,16.0,74,0.00,,,0.01,,2013-01-09 15:43:00,
2013-01-09 10:53:00,42.0,34.0,29.94,SSW,210,6.0,18.0,73,0.00,,,0.01,,2013-01-09 15:53:00,
2013-01-09 11:03:00,42.0,33.0,29.95,WSW,251,5.0,12.0,71,0.00,,,0.01,,2013-01-09 16:03:00,
2013-01-09 11:12:00,42.0,33.0,29.95,WSW,251,5.0,12.0,71,0.00,,,0.01,,2013-01-09 16:12:00,
2013-01-09 11:23:00,42.0,33.0,29.95,WSW,249,2.0,15.0,70,0.00,,,0.01,,2013-01-09 16:23:00,
2013-01-09 11:33:00,43.0,34.0,29.95,SSW,213,6.0,17.0,69,0.00,,,0.01,,2013-01-09 16:33:00,
2013-01-09 11:43:00,43.0,34.0,29.95,SSW,213,6.0,17.0,69,0.00,,,0.01,,2013-01-09 16:43:00,
2013-01-09 11:53:00,43.0,33.0,29.95,WSW,240,5.0,17.0,67,0.00,,,0.01,,2013-01-09 16:53:00,
2013-01-09 12:03:00,43.0,33.0,29.95,WNW,282,2.0,15.0,67,0.00,,,0.01,,2013-01-09 17:03:00,
2013-01-09 12:12:00,43.0,33.0,29.95,WNW,282,2.0,15.0,67,0.00,,,0.01,,2013-01-09 17:12:00,
2013-01-09 12:23:00,43.0,33.0,29.96,West,270,6.0,15.0,67,0.00,,,0.01,,2013-01-09 17:23:00,
2013-01-09 12:33:00,44.0,34.0,29.95,WNW,292,9.0,14.0,67,0.00,,,0.01,,2013-01-09 17:33:00,
2013-01-09 12:43:00,44.0,34.0,29.95,WNW,292,9.0,14.0,67,0.00,,,0.01,,2013-01-09 17:43:00,
2013-01-09 12:53:00,44.0,33.0,29.95,WNW,300,2.0,18.0,66,0.00,,,0.01,,2013-01-09 17:53:00,
2013-01-09 13:03:00,44.0,33.0,29.94,West,272,4.0,22.0,66,0.00,,,0.01,,2013-01-09 18:03:00,
2013-01-09 13:12:00,44.0,33.0,29.94,West,272,4.0,22.0,66,0.00,,,0.01,,2013-01-09 18:12:00,
2013-01-09 13:24:00,44.0,33.0,29.93,SSW,194,19.0,19.0,64,0.00,,,0.01,,2013-01-09 18:24:00,
2013-01-09 13:33:00,45.0,33.0,29.94,SSW,205,8.0,16.0,62,0.00,,,0.01,,2013-01-09 18:33:00,
2013-01-09 13:43:00,45.0,33.0,29.94,SSW,205,8.0,16.0,62,0.00,,,0.01,,2013-01-09 18:43:00,
2013-01-09 13:53:00,45.0,32.0,29.94,SSW,198,6.0,22.0,59,0.00,,,0.01,,2013-01-09 18:53:00,
2013-01-09 14:03:00,46.0,32.0,29.95,SW,229,4.0,19.0,58,0.00,,,0.01,,2013-01-09 19:03:00,
2013-01-09 14:13:00,46.0,32.0,29.95,SW,229,4.0,19.0,58,0.00,,,0.01,,2013-01-09 19:13:00,
2013-01-09 14:23:00,46.0,31.0,29.95,West,260,7.0,24.0,56,0.00,,,0.01,,2013-01-09 19:23:00,
2013-01-09 14:33:00,46.0,31.0,29.96,WNW,292,4.0,11.0,55,0.00,,,0.01,,2013-01-09 19:33:00,
2013-01-09 14:43:00,46.0,31.0,29.96,WNW,292,4.0,11.0,55,0.00,,,0.01,,2013-01-09 19:43:00,
2013-01-09 14:53:00,46.0,30.0,29.96,WSW,238,7.0,17.0,54,0.00,,,0.01,,2013-01-09 19:53:00,
2013-01-09 15:03:00,46.0,30.0,29.98,WNW,283,3.0,18.0,54,0.00,,,0.01,,2013-01-09 20:03:00,
2013-01-09 15:12:00,46.0,30.0,29.98,WNW,283,3.0,18.0,54,0.00,,,0.01,,2013-01-09 20:12:00,
2013-01-09 15:23:00,46.0,30.0,30.00,WNW,283,6.0,19.0,53,0.00,,,0.01,,2013-01-09 20:23:00,
2013-01-09 15:33:00,45.0,30.0,30.02,West,265,2.0,19.0,56,0.00,,,0.01,,2013-01-09 20:33:00,
2013-01-09 15:43:00,45.0,30.0,30.02,West,265,2.0,19.0,56,0.00,,,0.01,,2013-01-09 20:43:00,
2013-01-09 15:53:00,45.0,31.0,30.03,WNW,291,10.0,21.0,57,0.00,,,0.01,,2013-01-09 20:53:00,
2013-01-09 16:03:00,44.0,30.0,30.05,SSW,200,24.0,24.0,58,0.00,,,0.01,,2013-01-09 21:03:00,
2013-01-09 16:13:00,44.0,30.0,30.05,SSW,200,24.0,24.0,58,0.00,,,0.01,,2013-01-09 21:13:00,
2013-01-09 16:23:00,44.0,31.0,30.06,WNW,296,4.0,19.0,59,0.00,,,0.01,,2013-01-09 21:23:00,
2013-01-09 16:33:00,44.0,31.0,30.08,SW,223,2.0,17.0,59,0.00,,,0.01,,2013-01-09 21:33:00,
2013-01-09 16:43:00,44.0,31.0,30.08,SW,223,2.0,17.0,59,0.00,,,0.01,,2013-01-09 21:43:00,
2013-01-09 16:53:00,44.0,30.0,30.09,West,260,1.0,7.0,58,0.00,,,0.01,,2013-01-09 21:53:00,
2013-01-09 17:03:00,43.0,29.0,30.11,WSW,252,13.0,16.0,57,0.00,,,0.01,,2013-01-09 22:03:00,
2013-01-09 17:12:00,43.0,29.0,30.11,WSW,252,13.0,16.0,57,0.00,,,0.01,,2013-01-09 22:12:00,
2013-01-09 17:23:00,42.0,29.0,30.12,WSW,242,6.0,13.0,59,0.00,,,0.01,,2013-01-09 22:23:00,
2013-01-09 17:33:00,42.0,29.0,30.13,WSW,246,6.0,12.0,60,0.00,,,0.01,,2013-01-09 22:33:00,
2013-01-09 17:43:00,42.0,29.0,30.13,WSW,246,6.0,12.0,60,0.00,,,0.01,,2013-01-09 22:43:00,
2013-01-09 17:53:00,41.0,29.0,30.14,West,259,6.0,20.0,61,0.00,,,0.01,,2013-01-09 22:53:00,
2013-01-09 18:03:00,41.0,29.0,30.15,WSW,241,10.0,17.0,61,0.00,,,0.01,,2013-01-09 23:03:00,
2013-01-09 18:13:00,41.0,29.0,30.15,WSW,241,10.0,17.0,61,0.00,,,0.01,,2013-01-09 23:13:00,
2013-01-09 18:23:00,40.0,28.0,30.16,NW,306,3.0,13.0,61,0.00,,,0.01,,2013-01-09 23:23:00,
2013-01-09 18:33:00,40.0,28.0,30.17,WNW,287,5.0,10.0,62,0.00,,,0.01,,2013-01-09 23:33:00,
2013-01-09 18:43:00,40.0,28.0,30.17,WNW,287,5.0,10.0,62,0.00,,,0.01,,2013-01-09 23:43:00,
2013-01-09 18:53:00,40.0,28.0,30.19,WSW,258,9.0,15.0,62,0.00,,,0.01,,2013-01-09 23:53:00,
2013-01-09 19:03:00,40.0,28.0,30.20,WNW,287,0.0,6.0,63,0.00,,,0.01,,2013-01-10 00:03:00,
2013-01-09 19:12:00,40.0,28.0,30.20,WNW,287,0.0,6.0,63,0.00,,,0.01,,2013-01-10 00:12:00,
2013-01-09 19:22:00,39.0,27.0,30.22,NW,305,3.0,10.0,63,0.00,,,0.01,,2013-01-10 00:22:00,
2013-01-09 19:32:00,39.0,27.0,30.23,WNW,302,3.0,10.0,63,0.00,,,0.01,,2013-01-10 00:32:00,
2013-01-09 19:42:00,39.0,27.0,30.23,WNW,302,3.0,10.0,63,0.00,,,0.01,,2013-01-10 00:42:00,
2013-01-09 19:53:00,39.0,27.0,30.23,SW,230,3.0,13.0,63,0.00,,,0.01,,2013-01-10 00:53:00,
2013-01-09 20:02:00,39.0,27.0,30.24,SE,138,4.0,11.0,63,0.00,,,0.01,,2013-01-10 01:02:00,
2013-01-09 20:12:00,39.0,27.0,30.24,SE,138,4.0,11.0,63,0.00,,,0.01,,2013-01-10 01:12:00,
2013-01-09 20:22:00,39.0,27.0,30.25,WSW,257,6.0,12.0,63,0.00,,,0.01,,2013-01-10 01:22:00,
2013-01-09 20:33:00,39.0,27.0,30.26,West,261,6.0,9.0,63,0.00,,,0.01,,2013-01-10 01:33:00,
2013-01-09 20:43:00,39.0,27.0,30.26,West,261,6.0,9.0,63,0.00,,,0.01,,2013-01-10 01:43:00,
2013-01-09 20:53:00,39.0,28.0,30.27,WNW,292,2.0,7.0,64,0.00,,,0.01,,2013-01-10 01:53:00,
2013-01-09 21:03:00,38.0,27.0,30.27,NW,312,3.0,11.0,65,0.00,,,0.01,,2013-01-10 02:03:00,
2013-01-09 21:12:00,38.0,27.0,30.27,NW,312,3.0,11.0,65,0.00,,,0.01,,2013-01-10 02:12:00,
2013-01-09 21:22:00,38.0,27.0,30.28,WNW,284,0.0,8.0,65,0.00,,,0.01,,2013-01-10 02:22:00,
2013-01-09 21:32:00,38.0,27.0,30.30,West,269,0.0,5.0,65,0.00,,,0.01,,2013-01-10 02:32:00,
2013-01-09 21:42:00,38.0,27.0,30.30,West,269,0.0,5.0,65,0.00,,,0.01,,2013-01-10 02:42:00,
2013-01-09 21:53:00,38.0,27.0,30.30,West,269,0.0,5.0,65,0.00,,,0.01,,2013-01-10 02:53:00,
2013-01-09 22:03:00,37.0,27.0,30.31,WNW,288,0.0,2.0,67,0.00,,,0.01,,2013-01-10 03:03:00,
2013-01-09 22:12:00,37.0,27.0,30.31,WNW,288,0.0,2.0,67,0.00,,,0.01,,2013-01-10 03:12:00,
2013-01-09 22:22:00,37.0,28.0,30.32,WNW,294,0.0,3.0,69,0.00,,,0.01,,2013-01-10 03:22:00,
2013-01-09 22:33:00,36.0,27.0,30.33,WNW,294,0.0,0.0,69,0.00,,,0.01,,2013-01-10 03:33:00,
2013-01-09 22:42:00,36.0,27.0,30.33,WNW,294,0.0,0.0,69,0.00,,,0.01,,2013-01-10 03:42:00,
2013-01-09 22:53:00,34.0,26.0,30.33,WNW,294,0.0,0.0,72,0.00,,,0.01,,2013-01-10 03:53:00,
2013-01-09 23:02:00,33.0,26.0,30.33,WNW,294,0.0,0.0,75,0.00,,,0.01,,2013-01-10 04:02:00,
2013-01-09 23:12:00,33.0,26.0,30.33,WNW,294,0.0,0.0,75,0.00,,,0.01,,2013-01-10 04:12:00,
2013-01-09 23:22:00,31.0,24.0,30.33,WNW,294,0.0,0.0,76,0.00,,,0.01,,2013-01-10 04:22:00,
2013-01-09 23:32:00,30.0,24.0,30.34,WNW,294,0.0,0.0,79,0.00,,,0.01,,2013-01-10 04:32:00,
2013-01-09 23:43:00,30.0,24.0,30.34,WNW,294,0.0,0.0,79,0.00,,,0.01,,2013-01-10 04:43:00,
2013-01-09 23:53:00,29.0,24.0,30.35,WNW,294,0.0,0.0,81,0.00,,,0.01,,2013-01-10 04:53:00,